KF4PPJ Weather Reports


time (UTC)temp
C
wind
direction
speed
KPH
gust
KPH
rain 1hr
cm
rain 24hr
cm
rain mn
cm
humidity
%
barometer
mb
20260901060120 15 154 0.0 0.0 0.00 0.00 0.00 87 1011.3
20260901055619 15 164 0.0 0.0 0.00 0.00 0.00 87 1011.5
20260901055116 15 156 0.0 0.0 0.00 0.00 0.00 87 1011.5
20260901054613 15 152 0.0 0.0 0.00 0.00 0.00 86 1011.5
20260901054109 15 152 0.0 0.0 0.00 0.00 0.00 85 1011.5
20260901053605 15 152 0.0 0.0 0.00 0.00 0.00 85 1011.5
20260901053100 15 152 0.0 0.0 0.00 0.00 0.00 84 1011.3
20260901052555 15 151 0.0 0.0 0.00 0.00 0.00 83 1011.5
20260901052049 15 160 0.0 0.0 0.00 0.00 0.00 82 1011.5
20260901051544 16 153 0.0 0.0 0.00 0.00 0.00 82 1011.4
20260901051043 16 100 4.8 4.8 0.00 0.00 0.00 82 1011.5
20260901050538 16 140 0.0 1.6 0.00 0.00 0.00 82 1011.7
20260901050033 16 153 0.0 1.6 0.00 0.00 0.00 81 1011.6
20260901045529 16 154 0.0 0.0 0.00 0.00 0.00 81 1011.5
20260901045029 16 146 0.0 0.0 0.00 0.00 0.00 82 1011.4
20260901044525 16 148 0.0 0.0 0.00 0.00 0.00 81 1011.4
20260901044020 16 153 0.0 0.0 0.00 0.00 0.00 81 1011.5
20260901043516 16 153 0.0 0.0 0.00 0.00 0.00 80 1011.7
20260901043011 16 130 0.0 0.0 0.00 0.00 0.00 79 1011.6
20260901042510 16 145 0.0 1.6 0.00 0.00 0.00 79 1011.6
20260901042006 16 180 1.6 3.2 0.00 0.00 0.00 80 1011.7
20260901041507 16 159 0.0 1.6 0.00 0.00 0.00 80 1011.7
20260901041001 16 145 0.0 1.6 0.00 0.00 0.00 79 1011.8
20260901040456 16 138 0.0 0.0 0.00 0.00 0.00 79 1011.7
20260901035954 16 155 0.0 1.6 0.00 0.00 0.00 78 1011.7
20260901035453 16 168 1.6 1.6 0.00 0.00 0.00 77 1011.4
20260901034952 16 162 0.0 1.6 0.00 0.00 0.00 77 1011.3
20260901034452 17 154 0.0 0.0 0.00 0.00 0.00 76 1011.5
20260901033948 17 152 0.0 1.6 0.00 0.00 0.00 75 1011.3
20260901033446 17 146 1.6 1.6 0.00 0.00 0.00 75 1011.2
20260901032945 17 152 0.0 1.6 0.00 0.00 0.00 74 1011.0
20260901032439 17 145 1.6 3.2 0.00 0.00 0.00 73 1011.2
20260901031934 17 162 0.0 1.6 0.00 0.00 0.00 72 1011.0
20260901031430 18 160 0.0 1.6 0.00 0.00 0.00 71 1011.0
20260901030924 18 159 0.0 1.6 0.00 0.00 0.00 69 1011.1
20260901030420 18 155 0.0 0.0 0.00 0.00 0.00 67 1011.1
20260901025918 19 157 0.0 3.2 0.00 0.00 0.00 67 1011.0
20260901025414 20 154 0.0 1.6 0.00 0.00 0.00 65 1010.8
20260901024908 20 135 1.6 4.8 0.00 0.00 0.00 64 1010.9
20260901024407 20 155 0.0 1.6 0.00 0.00 0.00 61 1010.9
20260901023906 20 157 0.0 4.8 0.00 0.00 0.00 62 1010.8
20260901023401 20 157 0.0 4.8 0.00 0.00 0.00 60 1011.1
20260901022856 20 156 0.0 1.6 0.00 0.00 0.00 61 1011.2
20260901022352 20 168 0.0 3.2 0.00 0.00 0.00 60 1011.0
20260901021842 21 136 1.6 3.2 0.00 0.00 0.00 59 1010.9
20260901021337 21 150 0.0 8.0 0.00 0.00 0.00 61 1010.8
20260901020831 21 174 1.6 3.2 0.00 0.00 0.00 60 1011.0
20260901020327 21 158 0.0 3.2 0.00 0.00 0.00 60 1011.1
20260901015821 21 173 1.6 1.6 0.00 0.00 0.00 60 1011.0
20260901015318 21 206 1.6 3.2 0.00 0.00 0.00 59 1011.0
20260901014811 21 135 8.0 11.3 0.00 0.00 0.00 59 1011.0
20260901014308 21 159 4.8 4.8 0.00 0.00 0.00 59 1010.8
20260901013803 21 140 1.6 3.2 0.00 0.00 0.00 59 1011.0
20260901013258 22 282 4.8 8.0 0.00 0.00 0.00 58 1010.9
20260901012754 22 126 3.2 9.7 0.00 0.00 0.00 57 1011.1
20260901012253 22 171 3.2 4.8 0.00 0.00 0.00 57 1011.1
20260901011749 22 140 1.6 3.2 0.00 0.00 0.00 57 1011.0
20260901011244 22 97 4.8 8.0 0.00 0.00 0.00 57 1011.0
20260901010738 22 330 4.8 8.0 0.00 0.00 0.00 56 1011.0
20260901010233 22 154 3.2 9.7 0.00 0.00 0.00 56 1010.8
20260901005732 23 144 3.2 9.7 0.00 0.00 0.00 55 1010.8
20260901005227 23 11 4.8 8.0 0.00 0.00 0.00 53 1011.0
20260901004727 25 169 4.8 4.8 0.00 0.00 0.00 52 1010.9
20260901004221 25 210 4.8 8.0 0.00 0.00 0.00 51 1011.0
20260901003716 25 226 4.8 9.7 0.00 0.00 0.00 50 1011.0
20260901003216 26 270 4.8 8.0 0.00 0.00 0.00 49 1011.0
20260901002714 26 222 4.8 9.7 0.00 0.00 0.00 48 1010.9
20260901002209 26 146 1.6 9.7 0.00 0.00 0.00 47 1011.1
20260901001705 25 187 1.6 8.0 0.00 0.00 0.00 48 1011.2
20260901001200 25 50 3.2 8.0 0.00 0.00 0.00 48 1011.1
20260901000650 25 197 4.8 4.8 0.00 0.00 0.00 49 1011.2
20260901000145 25 348 6.4 11.3 0.00 0.00 0.00 48 1011.2
20260831235643 26 307 4.8 9.7 0.00 0.00 0.00 47 1011.3
20260831235140 25 150 3.2 4.8 0.00 0.00 0.00 48 1011.3
20260831234638 25 99 4.8 11.3 0.00 0.00 0.00 47 1011.3
20260831234134 25 155 3.2 8.0 0.00 0.00 0.00 47 1011.4
20260831233624 25 140 0.0 3.2 0.00 0.00 0.00 48 1011.3
20260831233120 25 358 3.2 12.9 0.00 0.00 0.00 47 1011.5
20260831232615 25 164 3.2 4.8 0.00 0.00 0.00 48 1011.4
20260831232111 25 184 6.4 9.7 0.00 0.00 0.00 46 1011.5
20260831231607 25 315 6.4 8.0 0.00 0.00 0.00 46 1011.7
20260831231102 25 145 0.0 11.3 0.00 0.00 0.00 45 1011.6
20260831230557 26 352 4.8 11.3 0.00 0.00 0.00 45 1011.6
20260831230051 26 152 4.8 4.8 0.00 0.00 0.00 45 1011.6
20260831225547 25 184 1.6 3.2 0.00 0.00 0.00 46 1011.8
20260831225042 25 114 3.2 8.0 0.00 0.00 0.00 46 1011.8
20260831224537 25 209 3.2 8.0 0.00 0.00 0.00 48 1011.9
20260831224033 24 154 3.2 8.0 0.00 0.00 0.00 49 1012.1
20260831223528 25 135 1.6 4.8 0.00 0.00 0.00 49 1012.1
20260831223024 25 215 4.8 16.1 0.00 0.00 0.00 49 1012.0
20260831222520 25 227 8.0 9.7 0.00 0.00 0.00 49 1012.1
20260831222019 25 110 1.6 8.0 0.00 0.00 0.00 50 1012.2
20260831221515 25 42 4.8 9.7 0.00 0.00 0.00 50 1012.3
20260831221010 25 172 3.2 8.0 0.00 0.00 0.00 50 1012.4
20260831220505 23 160 4.8 9.7 0.00 0.00 0.00 52 1012.5
20260831220001 23 4 8.0 11.3 0.00 0.00 0.00 52 1012.3
20260831215456 23 348 4.8 11.3 0.00 0.00 0.00 53 1012.8
20260831214952 23 213 6.4 9.7 0.00 0.00 0.00 53 1012.5
20260831214449 23 200 6.4 8.0 0.00 0.00 0.00 54 1012.6
20260831213945 23 290 6.4 14.5 0.00 0.00 0.00 54 1012.7
20260831213442 23 208 6.4 8.0 0.00 0.00 0.00 55 1012.8
20260831212941 23 220 4.8 11.3 0.00 0.00 0.00 54 1013.0
20260831212437 23 240 9.7 12.9 0.00 0.00 0.00 53 1013.0
20260831211936 23 170 3.2 9.7 0.00 0.00 0.00 54 1012.9
20260831211432 23 203 6.4 11.3 0.00 0.00 0.00 53 1012.9
20260831210925 23 142 6.4 8.0 0.00 0.00 0.00 53 1012.9
20260831210421 23 212 8.0 14.5 0.00 0.00 0.00 53 1013.0
20260831205916 23 226 3.2 9.7 0.00 0.00 0.00 53 1013.1
20260831205412 23 230 3.2 9.7 0.00 0.00 0.00 54 1013.3
20260831204907 23 193 3.2 8.0 0.00 0.00 0.00 54 1013.1
20260831204406 23 47 3.2 12.9 0.00 0.00 0.00 52 1013.3
20260831203905 23 82 1.6 3.2 0.00 0.00 0.00 53 1013.6
20260831203400 23 190 1.6 4.8 0.00 0.00 0.00 53 1013.6
20260831202858 22 110 1.6 3.2 0.00 0.00 0.00 55 1013.4
20260831202354 22 124 6.4 9.7 0.00 0.00 0.00 56 1013.5
20260831201853 22 349 3.2 9.7 0.00 0.00 0.00 57 1013.5
20260831201352 22 358 11.3 16.1 0.00 0.00 0.00 55 1013.9
20260831200848 22 171 3.2 8.0 0.00 0.00 0.00 56 1013.9
20260831200343 22 342 8.0 16.1 0.00 0.00 0.00 57 1013.9
20260831195838 22 7 8.0 11.3 0.00 0.00 0.00 58 1013.8
20260831195334 22 282 8.0 11.3 0.00 0.00 0.00 58 1013.9
20260831194829 21 158 1.6 11.3 0.00 0.00 0.00 59 1014.1
20260831194324 22 340 6.4 11.3 0.00 0.00 0.00 58 1014.2
20260831193824 22 147 4.8 12.9 0.00 0.00 0.00 59 1014.2
20260831193319 21 176 1.6 12.9 0.00 0.00 0.00 59 1014.3
20260831192814 21 202 1.6 8.0 0.00 0.00 0.00 60 1014.2
20260831192309 21 231 4.8 9.7 0.00 0.00 0.00 61 1014.6
20260831191805 21 18 6.4 11.3 0.00 0.00 0.00 59 1014.4
20260831191301 21 144 6.4 11.3 0.00 0.00 0.00 60 1014.6
20260831190757 21 75 3.2 14.5 0.00 0.00 0.00 59 1014.8
20260831190256 21 93 3.2 8.0 0.00 0.00 0.00 60 1014.7
20260831185751 21 238 4.8 14.5 0.00 0.00 0.00 60 1014.9
20260831185247 21 77 6.4 14.5 0.00 0.00 0.00 61 1014.9
20260831184745 21 321 8.0 20.9 0.00 0.00 0.00 60 1015.3
20260831184242 21 193 8.0 11.3 0.00 0.00 0.00 60 1015.0
20260831183742 21 152 4.8 8.0 0.00 0.00 0.00 60 1014.9
20260831183236 20 239 11.3 20.9 0.00 0.00 0.00 62 1015.0
20260831182735 20 192 8.0 11.3 0.00 0.00 0.00 65 1015.2
20260831182231 20 200 6.4 11.3 0.00 0.00 0.00 64 1015.2
20260831181730 20 202 6.4 9.7 0.00 0.00 0.00 62 1015.4
20260831181226 20 269 6.4 9.7 0.00 0.00 0.00 62 1015.3
20260831180720 20 16 9.7 14.5 0.00 0.00 0.00 60 1015.4
20260831180215 20 160 3.2 8.0 0.00 0.00 0.00 63 1015.4
20260831175714 19 60 4.8 8.0 0.00 0.00 0.00 64 1015.4
20260831175211 19 211 8.0 9.7 0.00 0.00 0.00 63 1015.5
20260831174706 19 144 6.4 8.0 0.00 0.00 0.00 63 1015.5
20260831174201 19 31 8.0 17.7 0.00 0.00 0.00 63 1015.8
20260831173700 19 192 3.2 4.8 0.00 0.00 0.00 64 1015.9
20260831173156 18 158 3.2 12.9 0.00 0.00 0.00 67 1015.9
20260831172655 18 161 8.0 12.9 0.00 0.00 0.00 66 1015.9
20260831172151 18 263 4.8 8.0 0.00 0.00 0.00 68 1015.9
20260831171645 17 111 1.6 9.7 0.00 0.00 0.00 70 1015.6
20260831171143 17 23 12.9 17.7 0.00 0.00 0.00 69 1015.9
20260831170639 17 151 8.0 20.9 0.00 0.00 0.00 69 1015.8
20260831170136 17 216 3.2 14.5 0.00 0.00 0.00 71 1015.9
20260831165631 17 199 1.6 12.9 0.00 0.00 0.00 72 1015.9
20260831165127 17 3 9.7 12.9 0.00 0.00 0.00 72 1016.0
20260831164623 17 101 3.2 4.8 0.00 0.00 0.00 73 1015.9
20260831164119 17 203 3.2 4.8 0.00 0.00 0.00 73 1016.2
20260831163614 17 204 4.8 4.8 0.00 0.00 0.00 75 1016.1
20260831163109 17 200 3.2 12.9 0.00 0.00 0.00 75 1016.1
20260831162608 17 166 1.6 9.7 0.00 0.00 0.00 77 1016.3
20260831162106 17 105 3.2 4.8 0.00 0.00 0.00 76 1016.2
20260831161603 16 151 1.6 9.7 0.00 0.00 0.00 78 1016.6
20260831161059 16 165 4.8 11.3 0.00 0.00 0.00 80 1016.6
20260831160557 16 183 0.0 4.8 0.00 0.00 0.00 82 1016.6
20260831160053 15 166 3.2 11.3 0.00 0.00 0.00 83 1016.6
20260831155547 15 26 6.4 9.7 0.00 0.00 0.00 83 1016.6
20260831155042 15 315 8.0 14.5 0.00 0.00 0.00 84 1016.6
20260831154538 15 75 3.2 4.8 0.00 0.00 0.00 87 1016.8
20260831154033 15 143 1.6 4.8 0.00 0.00 0.00 90 1016.5
20260831153532 14 103 1.6 3.2 0.00 0.00 0.00 92 1016.9
20260831153030 13 151 0.0 1.6 0.00 0.00 0.00 95 1016.7
20260831152525 13 145 0.0 4.8 0.00 0.00 0.00 95 1016.7
20260831152020 13 148 0.0 3.2 0.00 0.00 0.00 95 1017.0
20260831151514 13 157 0.0 0.0 0.00 0.00 0.00 96 1016.8
20260831151014 12 140 0.0 0.0 0.00 0.00 0.00 96 1017.1
20260831150509 12 128 0.0 1.6 0.00 0.00 0.00 96 1016.8
20260831150005 12 148 0.0 0.0 0.00 0.00 0.00 96 1017.2
20260831145459 12 146 0.0 0.0 0.00 0.00 0.00 96 1016.8
20260831144955 12 154 0.0 0.0 0.00 0.00 0.00 96 1016.7
20260831144450 11 152 0.0 0.0 0.00 0.00 0.00 96 1016.8
20260831143946 11 153 0.0 0.0 0.00 0.00 0.00 96 1016.6
20260831143440 11 158 0.0 0.0 0.00 0.00 0.00 96 1016.7
20260831142936 11 153 0.0 0.0 0.00 0.00 0.00 96 1016.8
20260831142432 11 152 0.0 0.0 0.00 0.00 0.00 96 1016.9
20260831141926 11 152 0.0 0.0 0.00 0.00 0.00 96 1016.7
20260831141420 11 152 0.0 0.0 0.00 0.00 0.00 96 1016.9
20260831140915 11 154 0.0 0.0 0.00 0.00 0.00 95 1017.0
20260831140409 11 154 0.0 0.0 0.00 0.00 0.00 95 1017.0
20260831135903 11 151 0.0 0.0 0.00 0.00 0.00 95 1016.9
20260831135403 11 151 0.0 0.0 0.00 0.00 0.00 95 1016.6
20260831134858 11 150 0.0 0.0 0.00 0.00 0.00 95 1016.8
20260831134354 11 152 0.0 0.0 0.00 0.00 0.00 95 1016.7
20260831133854 11 151 0.0 0.0 0.00 0.00 0.00 95 1016.7
20260831133353 11 152 0.0 0.0 0.00 0.00 0.00 95 1016.9
20260831132850 11 152 0.0 0.0 0.00 0.00 0.00 95 1016.7
20260831132344 11 153 0.0 0.0 0.00 0.00 0.00 95 1016.6
20260831131838 11 154 0.0 0.0 0.00 0.00 0.00 94 1016.8
20260831131335 11 154 0.0 0.0 0.00 0.00 0.00 94 1016.7
20260831130835 11 154 0.0 0.0 0.00 0.00 0.00 94 1016.9
20260831130331 11 153 0.0 0.0 0.00 0.00 0.00 94 1016.8
20260831125829 11 150 0.0 0.0 0.00 0.00 0.00 94 1016.8
20260831125325 11 153 0.0 0.0 0.00 0.00 0.00 94 1016.8
20260831124825 11 150 0.0 0.0 0.00 0.00 0.00 94 1017.0
20260831124321 12 152 0.0 0.0 0.00 0.00 0.00 94 1016.9
20260831123821 12 135 1.6 1.6 0.00 0.00 0.00 94 1016.8
20260831123320 12 154 0.0 0.0 0.00 0.00 0.00 93 1016.8
20260831122815 12 154 0.0 1.6 0.00 0.00 0.00 93 1017.1
20260831122311 12 153 0.0 0.0 0.00 0.00 0.00 93 1017.1
20260831121810 12 144 0.0 1.6 0.00 0.00 0.00 93 1017.1
20260831121307 12 153 0.0 1.6 0.00 0.00 0.00 92 1017.0
20260831120802 12 153 0.0 0.0 0.00 0.00 0.00 92 1017.1
20260831120256 12 150 0.0 1.6 0.00 0.00 0.00 92 1017.0
20260831115752 12 150 0.0 0.0 0.00 0.00 0.00 92 1017.1
20260831115248 12 153 0.0 0.0 0.00 0.00 0.00 91 1017.1
20260831114747 13 153 0.0 1.6 0.00 0.00 0.00 92 1017.2
20260831114246 12 2 8.0 11.3 0.00 0.00 0.00 92 1017.3
20260831113742 12 146 0.0 3.2 0.00 0.00 0.00 92 1017.4
20260831113236 12 156 0.0 0.0 0.00 0.00 0.00 91 1017.4
20260831112736 12 143 0.0 0.0 0.00 0.00 0.00 91 1017.6
20260831112231 12 147 1.6 1.6 0.00 0.00 0.00 91 1017.6
20260831111727 12 151 1.6 1.6 0.00 0.00 0.00 91 1017.5
20260831111223 12 159 0.0 1.6 0.00 0.00 0.00 90 1017.6
20260831110718 13 147 0.0 0.0 0.00 0.00 0.00 90 1017.4
20260831110213 13 132 0.0 1.6 0.00 0.00 0.00 90 1017.8
20260831105712 13 137 0.0 1.6 0.00 0.00 0.00 89 1017.6
20260831105208 13 156 0.0 1.6 0.00 0.00 0.00 89 1017.7
20260831104702 13 132 1.6 1.6 0.00 0.00 0.00 88 1017.6
20260831104159 13 132 1.6 1.6 0.00 0.00 0.00 88 1017.7
20260831103654 13 100 1.6 1.6 0.00 0.00 0.00 88 1017.4
20260831103150 13 145 0.0 3.2 0.00 0.00 0.00 89 1017.7
20260831102649 13 167 0.0 8.0 0.00 0.00 0.00 88 1017.5
20260831102144 13 139 1.6 3.2 0.00 0.00 0.00 88 1017.9
20260831101639 13 152 0.0 0.0 0.00 0.00 0.00 87 1017.8
20260831101135 13 158 0.0 0.0 0.00 0.00 0.00 86 1017.9
20260831100631 13 165 0.0 3.2 0.00 0.00 0.00 86 1018.0
20260831100127 13 166 0.0 1.6 0.00 0.00 0.00 85 1017.9
20260831095625 13 144 0.0 1.6 0.00 0.00 0.00 85 1018.2
20260831095120 13 122 3.2 4.8 0.00 0.00 0.00 86 1018.0
20260831094615 13 117 0.0 3.2 0.00 0.00 0.00 87 1018.0
20260831094112 13 148 0.0 4.8 0.00 0.00 0.00 89 1017.9
20260831093607 12 144 1.6 1.6 0.00 0.00 0.00 90 1018.3
20260831093103 12 155 0.0 3.2 0.00 0.00 0.00 91 1018.4
20260831092558 12 152 0.0 1.6 0.00 0.00 0.00 91 1018.2
20260831092054 12 151 0.0 1.6 0.00 0.00 0.00 91 1018.6
20260831091554 12 150 0.0 3.2 0.00 0.00 0.00 91 1018.5
20260831091049 12 161 0.0 1.6 0.00 0.00 0.00 91 1018.5
20260831090544 12 152 0.0 0.0 0.00 0.00 0.00 91 1018.5
20260831090041 12 156 0.0 0.0 0.00 0.00 0.00 91 1018.4
20260831085541 12 152 0.0 0.0 0.00 0.00 0.00 91 1018.6
20260831085036 12 153 0.0 0.0 0.00 0.00 0.00 91 1018.6
20260831084532 12 139 0.0 0.0 0.00 0.00 0.00 92 1018.7
20260831084028 12 152 0.0 0.0 0.00 0.00 0.00 91 1018.5
20260831083523 12 154 0.0 0.0 0.00 0.00 0.00 91 1018.6
20260831083018 12 152 0.0 0.0 0.00 0.00 0.00 91 1018.6
20260831082517 12 149 0.0 0.0 0.00 0.00 0.00 92 1018.6
20260831082013 12 140 0.0 0.0 0.00 0.00 0.00 92 1018.5
20260831081509 12 148 0.0 0.0 0.00 0.00 0.00 92 1018.6
20260831081004 12 149 0.0 0.0 0.00 0.00 0.00 91 1018.6
20260831080458 12 148 0.0 0.0 0.00 0.00 0.00 91 1018.8
20260831075953 12 149 0.0 0.0 0.00 0.00 0.00 91 1018.7
20260831075449 12 153 0.0 0.0 0.00 0.00 0.00 91 1018.9
20260831074944 12 153 0.0 0.0 0.00 0.00 0.00 91 1018.8
20260831074438 12 153 0.0 0.0 0.00 0.00 0.00 90 1019.0
20260831073933 12 153 0.0 0.0 0.00 0.00 0.00 90 1019.0
20260831073432 12 153 0.0 0.0 0.00 0.00 0.00 90 1018.9
20260831072927 12 154 0.0 0.0 0.00 0.00 0.00 90 1019.3
20260831072423 12 154 0.0 0.0 0.00 0.00 0.00 89 1019.1
20260831071919 12 156 0.0 0.0 0.00 0.00 0.00 89 1019.1
20260831071418 12 157 0.0 0.0 0.00 0.00 0.00 88 1019.0
20260831070913 12 150 0.0 1.6 0.00 0.00 0.00 88 1019.0
20260831070412 13 152 0.0 0.0 0.00 0.00 0.00 88 1019.2
20260831065911 13 152 0.0 1.6 0.00 0.00 0.00 87 1019.5
20260831065409 13 160 0.0 0.0 0.00 0.00 0.00 87 1019.5
20260831064904 13 155 0.0 1.6 0.00 0.00 0.00 86 1019.5
20260831064359 13 152 0.0 0.0 0.00 0.00 0.00 86 1019.4
20260831063855 13 153 0.0 0.0 0.00 0.00 0.00 85 1019.5
20260831063350 13 156 0.0 0.0 0.00 0.00 0.00 85 1019.3
20260831062850 13 149 0.0 0.0 0.00 0.00 0.00 84 1019.5
20260831062345 13 161 0.0 0.0 0.00 0.00 0.00 83 1019.6
20260831061843 13 152 0.0 0.0 0.00 0.00 0.00 83 1019.9
20260831061343 13 160 0.0 0.0 0.00 0.00 0.00 81 1019.8
20260831060840 14 165 0.0 1.6 0.00 0.00 0.00 81 1019.7